This demonstration page uses our WeatherBlox Daily Observations layout. Learn more.

Left ArrowRight Arrow

41.12389, -100.76542

Hourly Observations for September 30, 2017

Temp ( °F °C ) Dew Point ( °F °C ) Humidity (%) Winds ( mph kmh ) Pressure ( in mb ) Visibility ( mi km ) Precip ( " mm )
12:53 am 00:53 Cloudy with Light Rain 58 14.4 55 12.8 90 90 S 6 9 30.17 1022 10 16 0.02 0.51
1:53 am 01:53 Cloudy 57 13.9 55 12.8 93 93 ESE 7 11 30.14 1021 10 16 0.00 0.03
2:53 am 02:53 Mostly Cloudy 56 13.3 54 12.2 93 93 SE 6 9 30.14 1021 10 16 0.00 0.00
3:53 am 03:53 Cloudy 57 13.9 54 12.2 90 90 ESE 6 9 30.12 1020 10 16 0.00 0.00
4:10 am 04:10 Cloudy 57 13.9 54 12.2 90 90 ESE 5 7 30.12 1020 10 16 0.00 0.00
4:45 am 04:45 Cloudy 57 13.9 54 12.2 90 90 ESE 6 9 30.12 1020 10 16 0.00 0.00
4:53 am 04:53 Cloudy 57 13.9 54 12.2 90 90 SE 6 9 30.11 1020 10 16 0.00 0.00
5:53 am 05:53 Cloudy 57 13.9 54 12.2 90 90 ESE 6 9 30.11 1020 10 16 0.00 0.00
6:19 am 06:19 Cloudy 57 13.9 54 12.2 90 90 SE 6 9 30.12 1020 10 16 0.00 0.00
6:53 am 06:53 Cloudy 58 14.4 54 12.2 87 87 SSE 7 11 30.10 1019 10 16 0.00 0.00
7:19 am 07:19 Cloudy 59 15 54 12.2 83 83 S 12 19 30.06 1018 10 16 0.00 0.00
7:35 am 07:35 Cloudy 58 14.4 54 12.2 87 87 SSE 8 13 30.09 1019 10 16 0.00 0.00
7:53 am 07:53 Cloudy 58 14.4 54 12.2 87 87 SE 8 13 30.09 1019 10 16 0.00 0.00
8:53 am 08:53 Cloudy 60 15.6 54 12.2 80 80 SE 9 15 30.09 1019 10 16 0.00 0.00
9:06 am 09:06 Cloudy 60 15.6 55 12.8 84 84 SSE 9 15 30.06 1018 10 16 0.00 0.00
9:53 am 09:53 Cloudy 60 15.6 55 12.8 84 84 S 9 15 30.09 1019 10 16 0.00 0.00
10:53 am 10:53 Cloudy 60 15.6 55 12.8 84 84 S 12 19 30.09 1019 10 16 0.00 0.00
11:53 am 11:53 Cloudy 61 16.1 55 12.8 81 81 SSW 8 13 30.08 1019 10 16 0.00 0.00
12:53 pm 12:53 Cloudy 63 17.2 56 13.3 78 78 S 6 9 30.04 1017 10 16 0.00 0.00
1:53 pm 13:53 Cloudy 65 18.3 57 13.9 76 76 S 8 13 30.01 1016 10 16 0.00 0.00
2:53 pm 14:53 Cloudy 67 19.4 58 14.4 73 73 SW 10 17 29.98 1015 10 16 0.00 0.00
3:53 pm 15:53 Cloudy 68 20 58 14.4 70 70 S 16 26 29.93 1014 10 16 0.00 0.00
4:28 pm 16:28 Cloudy 69 20.6 58 14.4 68 68 S 10 17 29.85 1011 10 16 0.00 0.00
4:53 pm 16:53 Cloudy 69 20.6 58 14.4 68 68 S 14 22 29.91 1013 10 16 0.00 0.00
5:53 pm 17:53 Cloudy 69 20.6 58 14.4 68 68 S 14 22 29.90 1012 10 16 0.00 0.00
6:53 pm 18:53 Cloudy 68 20 59 15 73 73 SSE 7 11 29.87 1012 10 16 0.00 0.00
7:53 pm 19:53 Mostly Cloudy 65 18.3 59 15 81 81 E 8 13 29.86 1011 10 16 0.00 0.00
8:53 pm 20:53 Partly Cloudy 63 17.2 59 15 87 87 ESE 8 13 29.86 1011 10 16 0.00 0.00
9:53 pm 21:53 Mostly Cloudy 68 20 60 15.6 76 76 S 16 26 29.85 1011 10 16 0.00 0.00
10:53 pm 22:53 Mostly Clear 67 19.4 61 16.1 81 81 SSE 15 24 29.83 1010 10 16 0.00 0.00
11:35 pm 23:35 Cloudy with Nearby Thunderstorms 65 18.3 62 16.7 90 90 SSW 14 22 29.77 1008 3 5 0.08 2.03
11:53 pm 23:53 Cloudy with Nearby Thunderstorms 65 18.3 62 16.7 90 90 SSE 13 20 29.82 1010 7 11 0.10 2.54

Powered by AerisWeather